owner,sensor,date,latitude,longitude,vertical_datum,wind_speed,wind_to_direction,wind_speed_of_gust,qcFlag 
WAVCIS,ioos:station:WAVCIS:CSI03:3,2013-09-01T00:00:00Z,29.4412,-92.0613,10.0,3.048,252.0,,'11111222,11111222,99999999' 
WAVCIS,ioos:station:WAVCIS:CSI03:3,2013-09-01T01:00:00Z,29.4412,-92.0613,10.0,2.528,239.0,,'11111222,11111222,99999999' 
WAVCIS,ioos:station:WAVCIS:CSI03:3,2013-09-01T02:00:00Z,29.4412,-92.0613,10.0,1.385,240.0,,'11111222,11111222,99999999' 
WAVCIS,ioos:station:WAVCIS:CSI03:3,2013-09-01T03:00:00Z,29.4412,-92.0613,10.0,3.681,245.0,,'11111222,11111222,99999999' 
WAVCIS,ioos:station:WAVCIS:CSI03:3,2013-09-01T04:00:00Z,29.4412,-92.0613,10.0,0.998,194.0,,'11111222,11111222,99999999' 
WAVCIS,ioos:station:WAVCIS:CSI03:3,2013-09-01T05:00:00Z,29.4412,-92.0613,10.0,0.832,217.0,,'11111222,11111222,99999999' 
WAVCIS,ioos:station:WAVCIS:CSI03:3,2013-09-01T06:00:00Z,29.4412,-92.0613,10.0,0.761,207.0,,'11111222,11111222,99999999' 
WAVCIS,ioos:station:WAVCIS:CSI03:3,2013-09-01T07:00:00Z,29.4412,-92.0613,10.0,0.73,214.0,,'11111222,11111222,99999999' 
WAVCIS,ioos:station:WAVCIS:CSI03:3,2013-09-01T08:00:00Z,29.4412,-92.0613,10.0,2.394,238.0,,'11111222,11111222,99999999' 
WAVCIS,ioos:station:WAVCIS:CSI03:3,2013-09-01T09:00:00Z,29.4412,-92.0613,10.0,1.048,211.0,,'11111222,11111222,99999999' 
WAVCIS,ioos:station:WAVCIS:CSI03:3,2013-09-01T10:00:00Z,29.4412,-92.0613,10.0,2.803,239.0,,'11111222,11111222,99999999' 
WAVCIS,ioos:station:WAVCIS:CSI03:3,2013-09-01T11:00:00Z,29.4412,-92.0613,10.0,0.661,215.0,,'11111222,11111222,99999999' 
WAVCIS,ioos:station:WAVCIS:CSI03:3,2013-09-01T12:00:00Z,29.4412,-92.0613,10.0,2.072,235.0,,'11111222,11111222,99999999' 
WAVCIS,ioos:station:WAVCIS:CSI03:3,2013-09-01T13:00:00Z,29.4412,-92.0613,10.0,1.6,225.0,,'11111222,11111222,99999999' 
WAVCIS,ioos:station:WAVCIS:CSI03:3,2013-09-01T14:00:00Z,29.4412,-92.0613,10.0,1.719,240.0,,'11111222,11111222,99999999' 
WAVCIS,ioos:station:WAVCIS:CSI03:3,2013-09-01T15:00:00Z,29.4412,-92.0613,10.0,4.258,263.0,,'11111222,11111222,99999999' 
WAVCIS,ioos:station:WAVCIS:CSI03:3,2013-09-01T16:00:00Z,29.4412,-92.0613,10.0,3.616,270.0,,'11111222,11111222,99999999' 
WAVCIS,ioos:station:WAVCIS:CSI03:3,2013-09-01T17:00:00Z,29.4412,-92.0613,10.0,3.846,267.0,,'11111222,11111222,99999999' 
WAVCIS,ioos:station:WAVCIS:CSI03:3,2013-09-01T18:00:00Z,29.4412,-92.0613,10.0,3.984,264.0,,'11111222,11111222,99999999' 
WAVCIS,ioos:station:WAVCIS:CSI03:3,2013-09-01T19:00:00Z,29.4412,-92.0613,10.0,3.183,253.0,,'11111222,11111222,99999999' 
WAVCIS,ioos:station:WAVCIS:CSI03:3,2013-09-01T20:00:00Z,29.4412,-92.0613,10.0,3.006,243.0,,'11111222,11111222,99999999' 
WAVCIS,ioos:station:WAVCIS:CSI03:3,2013-09-01T21:00:00Z,29.4412,-92.0613,10.0,3.606,247.0,,'11111222,11111222,99999999' 
WAVCIS,ioos:station:WAVCIS:CSI03:3,2013-09-01T22:00:00Z,29.4412,-92.0613,10.0,3.115,253.0,,'11111222,11111222,99999999' 
WAVCIS,ioos:station:WAVCIS:CSI03:3,2013-09-01T23:00:00Z,29.4412,-92.0613,10.0,3.334,252.0,,'11111222,11111222,99999999' 
WAVCIS,ioos:station:WAVCIS:CSI03:3,2013-09-02T00:00:00Z,29.4412,-92.0613,10.0,2.857,248.0,,'11111222,11111222,99999999' 
WAVCIS,ioos:station:WAVCIS:CSI03:3,2013-09-02T01:00:00Z,29.4412,-92.0613,10.0,3.128,247.0,,'11111222,11111222,99999999' 
WAVCIS,ioos:station:WAVCIS:CSI03:3,2013-09-02T02:00:00Z,29.4412,-92.0613,10.0,2.705,238.0,,'11111222,11111222,99999999' 
WAVCIS,ioos:station:WAVCIS:CSI03:3,2013-09-02T03:00:00Z,29.4412,-92.0613,10.0,2.203,238.0,,'11111222,11111222,99999999' 
WAVCIS,ioos:station:WAVCIS:CSI03:3,2013-09-02T04:00:00Z,29.4412,-92.0613,10.0,1.233,221.0,,'11111222,11111222,99999999' 
WAVCIS,ioos:station:WAVCIS:CSI03:3,2013-09-02T05:00:00Z,29.4412,-92.0613,10.0,0.66,202.0,,'11111222,11111222,99999999' 
WAVCIS,ioos:station:WAVCIS:CSI03:3,2013-09-02T06:00:00Z,29.4412,-92.0613,10.0,1.692,229.0,,'11111222,11111222,99999999' 
WAVCIS,ioos:station:WAVCIS:CSI03:3,2013-09-02T07:00:00Z,29.4412,-92.0613,10.0,1.17,217.0,,'11111222,11111222,99999999' 
WAVCIS,ioos:station:WAVCIS:CSI03:3,2013-09-02T08:00:00Z,29.4412,-92.0613,10.0,2.06,227.0,,'11111222,11111222,99999999' 
WAVCIS,ioos:station:WAVCIS:CSI03:3,2013-09-02T09:00:00Z,29.4412,-92.0613,10.0,4.229,239.0,,'11111222,11111222,99999999' 
WAVCIS,ioos:station:WAVCIS:CSI03:3,2013-09-02T10:00:00Z,29.4412,-92.0613,10.0,4.334,244.0,,'11111222,11111222,99999999' 
WAVCIS,ioos:station:WAVCIS:CSI03:3,2013-09-02T11:00:00Z,29.4412,-92.0613,10.0,3.714,251.0,,'11111222,11111222,99999999' 
WAVCIS,ioos:station:WAVCIS:CSI03:3,2013-09-02T12:00:00Z,29.4412,-92.0613,10.0,3.928,268.0,,'11111222,11111222,99999999' 
WAVCIS,ioos:station:WAVCIS:CSI03:3,2013-09-02T13:00:00Z,29.4412,-92.0613,10.0,4.517,274.0,,'11111222,11111222,99999999' 
WAVCIS,ioos:station:WAVCIS:CSI03:3,2013-09-02T14:00:00Z,29.4412,-92.0613,10.0,3.867,280.0,,'11111222,11111222,99999999' 
WAVCIS,ioos:station:WAVCIS:CSI03:3,2013-09-02T15:00:00Z,29.4412,-92.0613,10.0,3.398,278.0,,'11111222,11111222,99999999' 
WAVCIS,ioos:station:WAVCIS:CSI03:3,2013-09-02T16:00:00Z,29.4412,-92.0613,10.0,3.206,260.0,,'11111222,11111222,99999999' 
WAVCIS,ioos:station:WAVCIS:CSI03:3,2013-09-02T17:00:00Z,29.4412,-92.0613,10.0,1.718,264.0,,'11111222,11111222,99999999' 
WAVCIS,ioos:station:WAVCIS:CSI03:3,2013-09-02T18:00:00Z,29.4412,-92.0613,10.0,3.609,255.0,,'11111222,11111222,99999999' 
WAVCIS,ioos:station:WAVCIS:CSI03:3,2013-09-02T19:00:00Z,29.4412,-92.0613,10.0,2.704,251.0,,'11111222,11111222,99999999' 
WAVCIS,ioos:station:WAVCIS:CSI03:3,2013-09-02T20:00:00Z,29.4412,-92.0613,10.0,4.717,269.0,,'11111222,11111222,99999999' 
WAVCIS,ioos:station:WAVCIS:CSI03:3,2013-09-02T21:00:00Z,29.4412,-92.0613,10.0,4.108,275.0,,'11111222,11111222,99999999' 
WAVCIS,ioos:station:WAVCIS:CSI03:3,2013-09-02T22:00:00Z,29.4412,-92.0613,10.0,5.387,272.0,,'11111222,11111222,99999999' 
WAVCIS,ioos:station:WAVCIS:CSI03:3,2013-09-02T23:00:00Z,29.4412,-92.0613,10.0,5.234,270.0,,'11111222,11111222,99999999' 
WAVCIS,ioos:station:WAVCIS:CSI03:3,2013-09-03T00:00:00Z,29.4412,-92.0613,10.0,3.244,250.0,,'11111222,11111222,99999999' 
WAVCIS,ioos:station:WAVCIS:CSI03:3,2013-09-03T01:00:00Z,29.4412,-92.0613,10.0,3.884,244.0,,'11111222,11111222,99999999' 
WAVCIS,ioos:station:WAVCIS:CSI03:3,2013-09-03T02:00:00Z,29.4412,-92.0613,10.0,2.947,235.0,,'11111222,11111222,99999999' 
WAVCIS,ioos:station:WAVCIS:CSI03:3,2013-09-03T03:00:00Z,29.4412,-92.0613,10.0,2.036,232.0,,'11111222,11111222,99999999' 
WAVCIS,ioos:station:WAVCIS:CSI03:3,2013-09-03T04:00:00Z,29.4412,-92.0613,10.0,1.695,232.0,,'11111222,11111222,99999999' 
WAVCIS,ioos:station:WAVCIS:CSI03:3,2013-09-03T05:00:00Z,29.4412,-92.0613,10.0,3.287,241.0,,'11111222,11111222,99999999' 
WAVCIS,ioos:station:WAVCIS:CSI03:3,2013-09-03T06:00:00Z,29.4412,-92.0613,10.0,3.83,246.0,,'11111222,11111222,99999999' 
WAVCIS,ioos:station:WAVCIS:CSI03:3,2013-09-03T07:00:00Z,29.4412,-92.0613,10.0,4.748,264.0,,'11111222,11111222,99999999' 
WAVCIS,ioos:station:WAVCIS:CSI03:3,2013-09-03T08:00:00Z,29.4412,-92.0613,10.0,3.955,251.0,,'11111222,11111222,99999999' 
WAVCIS,ioos:station:WAVCIS:CSI03:3,2013-09-03T09:00:00Z,29.4412,-92.0613,10.0,4.914,277.0,,'11111222,11111222,99999999' 
WAVCIS,ioos:station:WAVCIS:CSI03:3,2013-09-03T10:00:00Z,29.4412,-92.0613,10.0,4.955,270.0,,'11111222,11111222,99999999' 
WAVCIS,ioos:station:WAVCIS:CSI03:3,2013-09-03T11:00:00Z,29.4412,-92.0613,10.0,5.022,285.0,,'11111222,11111222,99999999' 
WAVCIS,ioos:station:WAVCIS:CSI03:3,2013-09-03T12:00:00Z,29.4412,-92.0613,10.0,4.087,321.0,,'11111222,11111222,99999999' 
WAVCIS,ioos:station:WAVCIS:CSI03:3,2013-09-03T13:00:00Z,29.4412,-92.0613,10.0,3.408,335.0,,'11111222,11111222,99999999' 
WAVCIS,ioos:station:WAVCIS:CSI03:3,2013-09-03T14:00:00Z,29.4412,-92.0613,10.0,4.541,337.0,,'11111222,11111222,99999999' 
WAVCIS,ioos:station:WAVCIS:CSI03:3,2013-09-03T15:00:00Z,29.4412,-92.0613,10.0,3.09,357.0,,'11111222,11111222,99999999' 
WAVCIS,ioos:station:WAVCIS:CSI03:3,2013-09-03T16:00:00Z,29.4412,-92.0613,10.0,1.587,19.0,,'11111222,11111222,99999999' 
WAVCIS,ioos:station:WAVCIS:CSI03:3,2013-09-03T17:00:00Z,29.4412,-92.0613,10.0,0.476,358.0,,'11111222,11111222,99999999' 
WAVCIS,ioos:station:WAVCIS:CSI03:3,2013-09-03T18:00:00Z,29.4412,-92.0613,10.0,1.259,179.0,,'11111222,11111222,99999999' 
WAVCIS,ioos:station:WAVCIS:CSI03:3,2013-09-03T19:00:00Z,29.4412,-92.0613,10.0,1.751,186.0,,'11111222,11111222,99999999' 
WAVCIS,ioos:station:WAVCIS:CSI03:3,2013-09-03T20:00:00Z,29.4412,-92.0613,10.0,2.564,242.0,,'11111222,11111222,99999999' 
WAVCIS,ioos:station:WAVCIS:CSI03:3,2013-09-03T21:00:00Z,29.4412,-92.0613,10.0,3.295,255.0,,'11111222,11111222,99999999' 
WAVCIS,ioos:station:WAVCIS:CSI03:3,2013-09-03T22:00:00Z,29.4412,-92.0613,10.0,3.876,249.0,,'11111222,11111222,99999999' 
WAVCIS,ioos:station:WAVCIS:CSI03:3,2013-09-03T23:00:00Z,29.4412,-92.0613,10.0,5.471,284.0,,'11111222,11111222,99999999' 
WAVCIS,ioos:station:WAVCIS:CSI03:3,2013-09-04T00:00:00Z,29.4412,-92.0613,10.0,2.839,329.0,,'11111222,11111222,99999999' 
WAVCIS,ioos:station:WAVCIS:CSI03:3,2013-09-04T01:00:00Z,29.4412,-92.0613,10.0,1.511,297.0,,'11111222,11111222,99999999' 
WAVCIS,ioos:station:WAVCIS:CSI03:3,2013-09-04T02:00:00Z,29.4412,-92.0613,10.0,1.516,288.0,,'11111222,11111222,99999999' 
WAVCIS,ioos:station:WAVCIS:CSI03:3,2013-09-04T03:00:00Z,29.4412,-92.0613,10.0,0.655,287.0,,'11111222,11111222,99999999' 
WAVCIS,ioos:station:WAVCIS:CSI03:3,2013-09-04T04:00:00Z,29.4412,-92.0613,10.0,0.831,167.0,,'11111222,11111222,99999999' 
WAVCIS,ioos:station:WAVCIS:CSI03:3,2013-09-04T05:00:00Z,29.4412,-92.0613,10.0,4.848,138.0,,'11111222,11111222,99999999' 
WAVCIS,ioos:station:WAVCIS:CSI03:3,2013-09-04T06:00:00Z,29.4412,-92.0613,10.0,4.396,122.0,,'11111222,11111222,99999999' 
WAVCIS,ioos:station:WAVCIS:CSI03:3,2013-09-04T07:00:00Z,29.4412,-92.0613,10.0,2.557,137.0,,'11111222,11111222,99999999' 
WAVCIS,ioos:station:WAVCIS:CSI03:3,2013-09-04T08:00:00Z,29.4412,-92.0613,10.0,0.731,50.0,,'11111222,11111222,99999999' 
WAVCIS,ioos:station:WAVCIS:CSI03:3,2013-09-04T09:00:00Z,29.4412,-92.0613,10.0,2.354,100.0,,'11111222,11111222,99999999' 
WAVCIS,ioos:station:WAVCIS:CSI03:3,2013-09-04T10:00:00Z,29.4412,-92.0613,10.0,2.066,54.0,,'11111222,11111222,99999999' 
WAVCIS,ioos:station:WAVCIS:CSI03:3,2013-09-04T11:00:00Z,29.4412,-92.0613,10.0,2.045,59.0,,'11111222,11111222,99999999' 
WAVCIS,ioos:station:WAVCIS:CSI03:3,2013-09-04T12:00:00Z,29.4412,-92.0613,10.0,2.179,66.0,,'11111222,11111222,99999999' 
WAVCIS,ioos:station:WAVCIS:CSI03:3,2013-09-04T13:00:00Z,29.4412,-92.0613,10.0,2.121,60.0,,'11111222,11111222,99999999' 
WAVCIS,ioos:station:WAVCIS:CSI03:3,2013-09-04T14:00:00Z,29.4412,-92.0613,10.0,2.837,73.0,,'11111222,11111222,99999999' 
WAVCIS,ioos:station:WAVCIS:CSI03:3,2013-09-04T15:00:00Z,29.4412,-92.0613,10.0,2.638,64.0,,'11111222,11111222,99999999' 
WAVCIS,ioos:station:WAVCIS:CSI03:3,2013-09-04T16:00:00Z,29.4412,-92.0613,10.0,2.17,93.0,,'11111222,11111222,99999999' 
WAVCIS,ioos:station:WAVCIS:CSI03:3,2013-09-04T17:00:00Z,29.4412,-92.0613,10.0,2.715,136.0,,'11111222,11111222,99999999' 
WAVCIS,ioos:station:WAVCIS:CSI03:3,2013-09-04T18:00:00Z,29.4412,-92.0613,10.0,3.165,136.0,,'11111222,11111222,99999999' 
WAVCIS,ioos:station:WAVCIS:CSI03:3,2013-09-04T19:00:00Z,29.4412,-92.0613,10.0,3.595,143.0,,'11111222,11111222,99999999' 
WAVCIS,ioos:station:WAVCIS:CSI03:3,2013-09-04T20:00:00Z,29.4412,-92.0613,10.0,3.747,180.0,,'11111222,11111222,99999999' 
WAVCIS,ioos:station:WAVCIS:CSI03:3,2013-09-04T21:00:00Z,29.4412,-92.0613,10.0,2.384,189.0,,'11111222,11111222,99999999' 
WAVCIS,ioos:station:WAVCIS:CSI03:3,2013-09-04T22:00:00Z,29.4412,-92.0613,10.0,2.443,185.0,,'11111222,11111222,99999999' 
WAVCIS,ioos:station:WAVCIS:CSI03:3,2013-09-04T23:00:00Z,29.4412,-92.0613,10.0,3.584,165.0,,'11111222,11111222,99999999' 
WAVCIS,ioos:station:WAVCIS:CSI03:3,2013-09-05T00:00:00Z,29.4412,-92.0613,10.0,3.993,151.0,,'11111222,11111222,99999999' 
WAVCIS,ioos:station:WAVCIS:CSI03:3,2013-09-05T01:00:00Z,29.4412,-92.0613,10.0,3.714,143.0,,'11111222,11111222,99999999' 
WAVCIS,ioos:station:WAVCIS:CSI03:3,2013-09-05T02:00:00Z,29.4412,-92.0613,10.0,3.467,152.0,,'11111222,11111222,99999999' 
WAVCIS,ioos:station:WAVCIS:CSI03:3,2013-09-05T03:00:00Z,29.4412,-92.0613,10.0,3.617,170.0,,'11111222,11111222,99999999' 
WAVCIS,ioos:station:WAVCIS:CSI03:3,2013-09-05T04:00:00Z,29.4412,-92.0613,10.0,4.048,150.0,,'11111222,11111222,99999999' 
WAVCIS,ioos:station:WAVCIS:CSI03:3,2013-09-05T05:00:00Z,29.4412,-92.0613,10.0,3.802,157.0,,'11111222,11111222,99999999' 
WAVCIS,ioos:station:WAVCIS:CSI03:3,2013-09-05T06:00:00Z,29.4412,-92.0613,10.0,3.805,178.0,,'11111222,11111222,99999999' 
WAVCIS,ioos:station:WAVCIS:CSI03:3,2013-09-05T07:00:00Z,29.4412,-92.0613,10.0,2.722,167.0,,'11111222,11111222,99999999' 
WAVCIS,ioos:station:WAVCIS:CSI03:3,2013-09-05T08:00:00Z,29.4412,-92.0613,10.0,2.622,179.0,,'11111222,11111222,99999999' 
WAVCIS,ioos:station:WAVCIS:CSI03:3,2013-09-05T09:00:00Z,29.4412,-92.0613,10.0,2.434,166.0,,'11111222,11111222,99999999' 
WAVCIS,ioos:station:WAVCIS:CSI03:3,2013-09-05T10:00:00Z,29.4412,-92.0613,10.0,1.734,135.0,,'11111222,11111222,99999999' 
WAVCIS,ioos:station:WAVCIS:CSI03:3,2013-09-05T11:00:00Z,29.4412,-92.0613,10.0,1.087,173.0,,'11111222,11111222,99999999' 
WAVCIS,ioos:station:WAVCIS:CSI03:3,2013-09-05T12:00:00Z,29.4412,-92.0613,10.0,3.383,52.0,,'11111222,11111222,99999999' 
WAVCIS,ioos:station:WAVCIS:CSI03:3,2013-09-05T13:00:00Z,29.4412,-92.0613,10.0,3.495,59.0,,'11111222,11111222,99999999' 
WAVCIS,ioos:station:WAVCIS:CSI03:3,2013-09-05T14:00:00Z,29.4412,-92.0613,10.0,4.387,81.0,,'11111222,11111222,99999999' 
WAVCIS,ioos:station:WAVCIS:CSI03:3,2013-09-05T15:00:00Z,29.4412,-92.0613,10.0,5.124,81.0,,'11111222,11111222,99999999' 
WAVCIS,ioos:station:WAVCIS:CSI03:3,2013-09-05T16:00:00Z,29.4412,-92.0613,10.0,5.508,79.0,,'11111222,11111222,99999999' 
WAVCIS,ioos:station:WAVCIS:CSI03:3,2013-09-05T17:00:00Z,29.4412,-92.0613,10.0,5.796,111.0,,'11111222,11111222,99999999' 
WAVCIS,ioos:station:WAVCIS:CSI03:3,2013-09-05T18:00:00Z,29.4412,-92.0613,10.0,5.224,113.0,,'11111222,11111222,99999999' 
WAVCIS,ioos:station:WAVCIS:CSI03:3,2013-09-05T19:00:00Z,29.4412,-92.0613,10.0,4.882,126.0,,'11111222,11111222,99999999' 
WAVCIS,ioos:station:WAVCIS:CSI03:3,2013-09-05T20:00:00Z,29.4412,-92.0613,10.0,4.688,137.0,,'11111222,11111222,99999999' 
WAVCIS,ioos:station:WAVCIS:CSI03:3,2013-09-05T21:00:00Z,29.4412,-92.0613,10.0,5.193,157.0,,'11111222,11111222,99999999' 
WAVCIS,ioos:station:WAVCIS:CSI03:3,2013-09-05T22:00:00Z,29.4412,-92.0613,10.0,5.506,156.0,,'11111222,11111222,99999999' 
WAVCIS,ioos:station:WAVCIS:CSI03:3,2013-09-05T23:00:00Z,29.4412,-92.0613,10.0,5.582,155.0,,'11111222,11111222,99999999' 
WAVCIS,ioos:station:WAVCIS:CSI03:3,2013-09-06T00:00:00Z,29.4412,-92.0613,10.0,6.063,149.0,,'11111222,11111222,99999999' 
WAVCIS,ioos:station:WAVCIS:CSI03:3,2013-09-06T01:00:00Z,29.4412,-92.0613,10.0,5.954,147.0,,'11111222,11111222,99999999' 
WAVCIS,ioos:station:WAVCIS:CSI03:3,2013-09-06T02:00:00Z,29.4412,-92.0613,10.0,5.516,138.0,,'11111222,11111222,99999999' 
WAVCIS,ioos:station:WAVCIS:CSI03:3,2013-09-06T03:00:00Z,29.4412,-92.0613,10.0,5.719,146.0,,'11111222,11111222,99999999' 
WAVCIS,ioos:station:WAVCIS:CSI03:3,2013-09-06T04:00:00Z,29.4412,-92.0613,10.0,5.32,151.0,,'11111222,11111222,99999999' 
WAVCIS,ioos:station:WAVCIS:CSI03:3,2013-09-06T05:00:00Z,29.4412,-92.0613,10.0,4.434,138.0,,'11111222,11111222,99999999' 
WAVCIS,ioos:station:WAVCIS:CSI03:3,2013-09-06T06:00:00Z,29.4412,-92.0613,10.0,4.141,145.0,,'11111222,11111222,99999999' 
WAVCIS,ioos:station:WAVCIS:CSI03:3,2013-09-06T07:00:00Z,29.4412,-92.0613,10.0,2.235,121.0,,'11111222,11111222,99999999' 
WAVCIS,ioos:station:WAVCIS:CSI03:3,2013-09-06T08:00:00Z,29.4412,-92.0613,10.0,3.218,109.0,,'11111222,11111222,99999999' 
WAVCIS,ioos:station:WAVCIS:CSI03:3,2013-09-06T09:00:00Z,29.4412,-92.0613,10.0,4.019,140.0,,'11111222,11111222,99999999' 
WAVCIS,ioos:station:WAVCIS:CSI03:3,2013-09-06T10:00:00Z,29.4412,-92.0613,10.0,7.2,101.0,,'11111222,11111222,99999999' 
WAVCIS,ioos:station:WAVCIS:CSI03:3,2013-09-06T11:00:00Z,29.4412,-92.0613,10.0,4.031,135.0,,'11111222,11111222,99999999' 
WAVCIS,ioos:station:WAVCIS:CSI03:3,2013-09-06T12:00:00Z,29.4412,-92.0613,10.0,8.71,124.0,,'11111222,11111222,99999999' 
WAVCIS,ioos:station:WAVCIS:CSI03:3,2013-09-06T13:00:00Z,29.4412,-92.0613,10.0,4.812,116.0,,'11111222,11111222,99999999' 
WAVCIS,ioos:station:WAVCIS:CSI03:3,2013-09-06T14:00:00Z,29.4412,-92.0613,10.0,5.156,114.0,,'11111222,11111222,99999999' 
WAVCIS,ioos:station:WAVCIS:CSI03:3,2013-09-06T15:00:00Z,29.4412,-92.0613,10.0,5.391,103.0,,'11111222,11111222,99999999' 
WAVCIS,ioos:station:WAVCIS:CSI03:3,2013-09-06T16:00:00Z,29.4412,-92.0613,10.0,6.174,101.0,,'11111222,11111222,99999999' 
WAVCIS,ioos:station:WAVCIS:CSI03:3,2013-09-06T17:00:00Z,29.4412,-92.0613,10.0,5.566,109.0,,'11111222,11111222,99999999' 
WAVCIS,ioos:station:WAVCIS:CSI03:3,2013-09-06T18:00:00Z,29.4412,-92.0613,10.0,6.239,115.0,,'11111222,11111222,99999999' 
WAVCIS,ioos:station:WAVCIS:CSI03:3,2013-09-06T19:00:00Z,29.4412,-92.0613,10.0,5.714,129.0,,'11111222,11111222,99999999' 
WAVCIS,ioos:station:WAVCIS:CSI03:3,2013-09-06T20:00:00Z,29.4412,-92.0613,10.0,5.461,155.0,,'11111222,11111222,99999999' 
WAVCIS,ioos:station:WAVCIS:CSI03:3,2013-09-06T21:00:00Z,29.4412,-92.0613,10.0,4.669,156.0,,'11111222,11111222,99999999' 
WAVCIS,ioos:station:WAVCIS:CSI03:3,2013-09-06T22:00:00Z,29.4412,-92.0613,10.0,4.386,161.0,,'11111222,11111222,99999999' 
WAVCIS,ioos:station:WAVCIS:CSI03:3,2013-09-06T23:00:00Z,29.4412,-92.0613,10.0,4.341,154.0,,'11111222,11111222,99999999' 
WAVCIS,ioos:station:WAVCIS:CSI03:3,2013-09-07T00:00:00Z,29.4412,-92.0613,10.0,3.424,124.0,,'11111222,11111222,99999999' 
WAVCIS,ioos:station:WAVCIS:CSI03:3,2013-09-07T01:00:00Z,29.4412,-92.0613,10.0,3.134,133.0,,'11111222,11111222,99999999' 
WAVCIS,ioos:station:WAVCIS:CSI03:3,2013-09-07T02:00:00Z,29.4412,-92.0613,10.0,2.57,152.0,,'11111222,11111222,99999999' 
WAVCIS,ioos:station:WAVCIS:CSI03:3,2013-09-07T03:00:00Z,29.4412,-92.0613,10.0,2.246,118.0,,'11111222,11111222,99999999' 
WAVCIS,ioos:station:WAVCIS:CSI03:3,2013-09-07T04:00:00Z,29.4412,-92.0613,10.0,4.287,120.0,,'11111222,11111222,99999999' 
WAVCIS,ioos:station:WAVCIS:CSI03:3,2013-09-07T05:00:00Z,29.4412,-92.0613,10.0,4.308,131.0,,'11111222,11111222,99999999' 
WAVCIS,ioos:station:WAVCIS:CSI03:3,2013-09-07T06:00:00Z,29.4412,-92.0613,10.0,4.525,117.0,,'11111222,11111222,99999999' 
WAVCIS,ioos:station:WAVCIS:CSI03:3,2013-09-07T07:00:00Z,29.4412,-92.0613,10.0,4.828,112.0,,'11111222,11111222,99999999' 
WAVCIS,ioos:station:WAVCIS:CSI03:3,2013-09-07T08:00:00Z,29.4412,-92.0613,10.0,5.506,110.0,,'11111222,11111222,99999999' 
WAVCIS,ioos:station:WAVCIS:CSI03:3,2013-09-07T09:00:00Z,29.4412,-92.0613,10.0,4.509,99.0,,'11111222,11111222,99999999' 
WAVCIS,ioos:station:WAVCIS:CSI03:3,2013-09-07T10:00:00Z,29.4412,-92.0613,10.0,6.13,162.0,,'11111222,11111222,99999999' 
WAVCIS,ioos:station:WAVCIS:CSI03:3,2013-09-07T11:00:00Z,29.4412,-92.0613,10.0,3.341,115.0,,'11111222,11111222,99999999' 
WAVCIS,ioos:station:WAVCIS:CSI03:3,2013-09-07T12:00:00Z,29.4412,-92.0613,10.0,0.499,171.0,,'11111222,11111222,99999999' 
WAVCIS,ioos:station:WAVCIS:CSI03:3,2013-09-07T13:00:00Z,29.4412,-92.0613,10.0,4.016,177.0,,'11111222,11111222,99999999' 
WAVCIS,ioos:station:WAVCIS:CSI03:3,2013-09-07T14:00:00Z,29.4412,-92.0613,10.0,1.724,102.0,,'11111222,11111222,99999999' 
WAVCIS,ioos:station:WAVCIS:CSI03:3,2013-09-07T15:00:00Z,29.4412,-92.0613,10.0,2.461,95.0,,'11111222,11111222,99999999' 
WAVCIS,ioos:station:WAVCIS:CSI03:3,2013-09-07T16:00:00Z,29.4412,-92.0613,10.0,3.977,79.0,,'11111222,11111222,99999999' 
WAVCIS,ioos:station:WAVCIS:CSI03:3,2013-09-07T17:00:00Z,29.4412,-92.0613,10.0,3.475,163.0,,'11111222,11111222,99999999' 
WAVCIS,ioos:station:WAVCIS:CSI03:3,2013-09-07T18:00:00Z,29.4412,-92.0613,10.0,2.925,119.0,,'11111222,11111222,99999999' 
WAVCIS,ioos:station:WAVCIS:CSI03:3,2013-09-07T19:00:00Z,29.4412,-92.0613,10.0,2.727,140.0,,'11111222,11111222,99999999' 
WAVCIS,ioos:station:WAVCIS:CSI03:3,2013-09-07T20:00:00Z,29.4412,-92.0613,10.0,2.492,152.0,,'11111222,11111222,99999999' 
WAVCIS,ioos:station:WAVCIS:CSI03:3,2013-09-07T21:00:00Z,29.4412,-92.0613,10.0,4.119,144.0,,'11111222,11111222,99999999' 
WAVCIS,ioos:station:WAVCIS:CSI03:3,2013-09-07T22:00:00Z,29.4412,-92.0613,10.0,5.329,136.0,,'11111222,11111222,99999999' 
WAVCIS,ioos:station:WAVCIS:CSI03:3,2013-09-07T23:00:00Z,29.4412,-92.0613,10.0,10.2,104.0,,'11111222,11111222,99999999' 
WAVCIS,ioos:station:WAVCIS:CSI03:3,2013-09-08T00:00:00Z,29.4412,-92.0613,10.0,3.015,133.0,,'11111222,11111222,99999999' 
WAVCIS,ioos:station:WAVCIS:CSI03:3,2013-09-08T01:00:00Z,29.4412,-92.0613,10.0,2.092,128.0,,'11111222,11111222,99999999' 
WAVCIS,ioos:station:WAVCIS:CSI03:3,2013-09-08T02:00:00Z,29.4412,-92.0613,10.0,3.954,185.0,,'11111222,11111222,99999999' 
WAVCIS,ioos:station:WAVCIS:CSI03:3,2013-09-08T03:00:00Z,29.4412,-92.0613,10.0,2.999,190.0,,'11111222,11111222,99999999' 
WAVCIS,ioos:station:WAVCIS:CSI03:3,2013-09-08T04:00:00Z,29.4412,-92.0613,10.0,2.397,192.0,,'11111222,11111222,99999999' 
WAVCIS,ioos:station:WAVCIS:CSI03:3,2013-09-08T05:00:00Z,29.4412,-92.0613,10.0,1.206,136.0,,'11111222,11111222,99999999' 
WAVCIS,ioos:station:WAVCIS:CSI03:3,2013-09-08T06:00:00Z,29.4412,-92.0613,10.0,3.739,51.0,,'11111222,11111222,99999999' 
WAVCIS,ioos:station:WAVCIS:CSI03:3,2013-09-08T07:00:00Z,29.4412,-92.0613,10.0,4.269,78.0,,'11111222,11111222,99999999' 
WAVCIS,ioos:station:WAVCIS:CSI03:3,2013-09-08T08:00:00Z,29.4412,-92.0613,10.0,4.067,85.0,,'11111222,11111222,99999999' 
WAVCIS,ioos:station:WAVCIS:CSI03:3,2013-09-08T09:00:00Z,29.4412,-92.0613,10.0,2.928,98.0,,'11111222,11111222,99999999' 
WAVCIS,ioos:station:WAVCIS:CSI03:3,2013-09-08T10:00:00Z,29.4412,-92.0613,10.0,3.372,76.0,,'11111222,11111222,99999999' 
WAVCIS,ioos:station:WAVCIS:CSI03:3,2013-09-08T11:00:00Z,29.4412,-92.0613,10.0,3.54,81.0,,'11111222,11111222,99999999' 
WAVCIS,ioos:station:WAVCIS:CSI03:3,2013-09-08T12:00:00Z,29.4412,-92.0613,10.0,5.267,69.0,,'11111222,11111222,99999999' 
WAVCIS,ioos:station:WAVCIS:CSI03:3,2013-09-08T13:00:00Z,29.4412,-92.0613,10.0,5.507,75.0,,'11111222,11111222,99999999' 
WAVCIS,ioos:station:WAVCIS:CSI03:3,2013-09-08T14:00:00Z,29.4412,-92.0613,10.0,5.618,78.0,,'11111222,11111222,99999999' 
WAVCIS,ioos:station:WAVCIS:CSI03:3,2013-09-08T15:00:00Z,29.4412,-92.0613,10.0,4.793,90.0,,'11111222,11111222,99999999' 
WAVCIS,ioos:station:WAVCIS:CSI03:3,2013-09-08T18:00:00Z,29.4412,-92.0613,10.0,5.217,123.0,,'11111222,11111222,99999999' 
WAVCIS,ioos:station:WAVCIS:CSI03:3,2013-09-08T19:00:00Z,29.4412,-92.0613,10.0,4.595,120.0,,'11111222,11111222,99999999' 
WAVCIS,ioos:station:WAVCIS:CSI03:3,2013-09-08T20:00:00Z,29.4412,-92.0613,10.0,3.263,131.0,,'11111222,11111222,99999999' 
WAVCIS,ioos:station:WAVCIS:CSI03:3,2013-09-08T21:00:00Z,29.4412,-92.0613,10.0,4.02,153.0,,'11111222,11111222,99999999' 
WAVCIS,ioos:station:WAVCIS:CSI03:3,2013-09-08T22:00:00Z,29.4412,-92.0613,10.0,4.735,158.0,,'11111222,11111222,99999999' 
WAVCIS,ioos:station:WAVCIS:CSI03:3,2013-09-08T23:00:00Z,29.4412,-92.0613,10.0,4.707,166.0,,'11111222,11111222,99999999' 
WAVCIS,ioos:station:WAVCIS:CSI03:3,2013-09-09T00:00:00Z,29.4412,-92.0613,10.0,4.346,160.0,,'11111222,11111222,99999999' 
WAVCIS,ioos:station:WAVCIS:CSI03:3,2013-09-09T01:00:00Z,29.4412,-92.0613,10.0,3.686,179.0,,'11111222,11111222,99999999' 
WAVCIS,ioos:station:WAVCIS:CSI03:3,2013-09-09T02:00:00Z,29.4412,-92.0613,10.0,2.268,181.0,,'11111222,11111222,99999999' 
WAVCIS,ioos:station:WAVCIS:CSI03:3,2013-09-09T03:00:00Z,29.4412,-92.0613,10.0,2.182,130.0,,'11111222,11111222,99999999' 
WAVCIS,ioos:station:WAVCIS:CSI03:3,2013-09-09T04:00:00Z,29.4412,-92.0613,10.0,2.381,138.0,,'11111222,11111222,99999999' 
WAVCIS,ioos:station:WAVCIS:CSI03:3,2013-09-09T05:00:00Z,29.4412,-92.0613,10.0,3.068,120.0,,'11111222,11111222,99999999' 
WAVCIS,ioos:station:WAVCIS:CSI03:3,2013-09-09T06:00:00Z,29.4412,-92.0613,10.0,5.338,116.0,,'11111222,11111222,99999999' 